�N����,����,�g�[���i���ԁj���x,�g�[�����x,��g�[���i���ցj���x,����
 2002/11/01, 0:00,21.2,39,19.8,18.1
 2002/11/01, 0:15,21.2,39,19.7,18.2
 2002/11/01, 0:30,21.2,40,19.8,18.2
 2002/11/01, 0:45,21.3,41,20,18.3
 2002/11/01, 1:00,21.4,41,20.1,18.3
 2002/11/01, 1:15,21.4,41,20.1,18.4
 2002/11/01, 1:30,21.4,42,20.1,18.4
 2002/11/01, 1:45,21.4,42,20.1,18.4
 2002/11/01, 2:00,21.4,42,20.1,18.5
 2002/11/01, 2:15,21.4,42,20.1,18.5
 2002/11/01, 2:30,21.4,42,20.1,18.5
 2002/11/01, 2:45,21.4,42,20,18.6
 2002/11/01, 3:00,21.4,42,20,18.6
 2002/11/01, 3:15,21.4,42,20,18.7
 2002/11/01, 3:30,21.4,42,20.1,17.6
 2002/11/01, 3:45,21.4,42,19.7,17.7
 2002/11/01, 4:00,21.4,42,19.6,17.7
 2002/11/01, 4:15,21.4,42,19.6,17.8
 2002/11/01, 4:30,21.4,42,19.5,17.8
 2002/11/01, 4:45,21.4,42,19.5,17.9
 2002/11/01, 5:00,21.4,42,19.6,17.9
 2002/11/01, 5:15,21.4,43,19.6,18
 2002/11/01, 5:30,21.4,43,19.6,18.1
 2002/11/01, 5:45,21.4,43,19.6,18.1
 2002/11/01, 6:00,21.4,43,19.7,18.2
 2002/11/01, 6:15,21.4,43,19.9,18.2
 2002/11/01, 6:30,21.4,44,20.1,18.2
 2002/11/01, 6:45,21.4,46,20.3,18.3
 2002/11/01, 7:00,21.4,47,20.1,18.1
 2002/11/01, 7:15,21.5,48,20.1,18.3
 2002/11/01, 7:30,21.5,47,19.9,18
 2002/11/01, 7:45,21.6,47,20,18.1
 2002/11/01, 8:00,21.5,48,19.9,18.1
 2002/11/01, 8:15,21.5,47,19.8,18.2
 2002/11/01, 8:30,21.5,47,19.8,18.2
 2002/11/01, 8:45,21.4,47,19.9,18.2
 2002/11/01, 9:00,21.4,47,19.9,18.3
 2002/11/01, 9:15,21.4,46,19.9,18.3
 2002/11/01, 9:30,21.4,46,20,18.4
 2002/11/01, 9:45,21.4,46,20,18.4
 2002/11/01,10:00,21.3,46,20.1,18.4
 2002/11/01,10:15,21.3,46,20,18.5
 2002/11/01,10:30,21.3,46,20.1,18.5
 2002/11/01,10:45,21.3,46,20,18.6
 2002/11/01,11:00,21.3,46,20.1,18.6
 2002/11/01,11:15,21.4,46,20.1,18.7
 2002/11/01,11:30,21.4,46,20.1,18.7
 2002/11/01,11:45,21.4,46,20.1,18.7
 2002/11/01,12:00,21.4,46,20.1,18.8
 2002/11/01,12:15,21.3,46,20,18.8
 2002/11/01,12:30,21.3,46,20.1,18.9
 2002/11/01,12:45,21.4,46,20.1,18.9
 2002/11/01,13:00,21.4,46,20.1,18.9
 2002/11/01,13:15,21.4,45,20.1,19
 2002/11/01,13:30,21.4,45,20.2,19
 2002/11/01,13:45,21.4,45,20.2,19.1
 2002/11/01,14:00,21.4,45,20.2,19.1
 2002/11/01,14:15,21.4,45,20.3,19.1
 2002/11/01,14:30,21.5,45,20.2,19.2
 2002/11/01,14:45,21.5,45,20.2,19.2
 2002/11/01,15:00,21.5,45,20.2,19.2
 2002/11/01,15:15,21.5,45,20.2,19.3
 2002/11/01,15:30,21.5,45,20.2,19.3
 2002/11/01,15:45,21.5,45,20.2,19.3
 2002/11/01,16:00,21.5,45,20.2,19.4
 2002/11/01,16:15,21.4,45,20.3,19.4
 2002/11/01,16:30,21.4,45,20.3,19.5
 2002/11/01,16:45,21.4,45,20.2,19.5
 2002/11/01,17:00,21.4,45,20.2,19.5
 2002/11/01,17:15,21.4,45,20.1,19.5
 2002/11/01,17:30,21.4,45,20.1,19.6
 2002/11/01,17:45,21.4,45,20.1,19.6
 2002/11/01,18:00,21.3,45,20.1,19.6
 2002/11/01,18:15,21.3,45,20,19.7
 2002/11/01,18:30,21.3,45,20,19.7
 2002/11/01,18:45,21.3,45,20,19.7
 2002/11/01,19:00,21.3,45,20.1,19.8
 2002/11/01,19:15,21.3,45,20,19.8
 2002/11/01,19:30,21.3,45,20,19.8
 2002/11/01,19:45,21.3,44,20,19.8
 2002/11/01,20:00,21.3,44,20.1,19.9
 2002/11/01,20:15,21.2,44,20.1,19.9
 2002/11/01,20:30,21.2,44,20,19.9
 2002/11/01,20:45,21.2,44,20,19.9
 2002/11/01,21:00,21.2,44,20,20
 2002/11/01,21:15,21.2,44,20,20
 2002/11/01,21:30,21.2,44,19.9,20
 2002/11/01,21:45,21.2,44,19.8,20
 2002/11/01,22:00,21.2,43,19.7,20.1
 2002/11/01,22:15,21.2,43,19.6,20.1
 2002/11/01,22:30,21.1,42,19.6,20.1
 2002/11/01,22:45,21.1,42,19.5,20.2
 2002/11/01,23:00,21.1,41,19.5,20.2
 2002/11/01,23:15,21.1,41,19.5,20.2
 2002/11/01,23:30,21,41,19.5,20.2
 2002/11/01,23:45,21,41,19.6,20.3
 2002/11/02, 0:00,21.1,41,19.5,20.3
 2002/11/02, 0:15,21,41,19.5,20.3
 2002/11/02, 0:30,21.1,42,19.6,18.7
 2002/11/02, 0:45,21.2,43,19.6,18.8
 2002/11/02, 1:00,21.3,43,19.6,18.8
 2002/11/02, 1:15,21.4,43,19.6,18.9
 2002/11/02, 1:30,21.5,43,19.4,18.9
 2002/11/02, 1:45,21.5,38,19.2,18.9
 2002/11/02, 2:00,21.6,39,19.2,19
 2002/11/02, 2:15,21.5,38,19.3,18.1
 2002/11/02, 2:30,21.5,39,18.5,18.1
 2002/11/02, 2:45,21.5,39,18.4,18.2
 2002/11/02, 3:00,21.4,39,18.3,18.2
 2002/11/02, 3:15,21.3,39,18.3,18.3
 2002/11/02, 3:30,21.3,39,18.2,18.3
 2002/11/02, 3:45,21.3,38,18.3,18.4
 2002/11/02, 4:00,21.2,39,18.1,18.4
 2002/11/02, 4:15,21.2,39,18.2,18.4
 2002/11/02, 4:30,21.1,38,18.1,18.5
 2002/11/02, 4:45,21.1,39,18.4,18.5
 2002/11/02, 5:00,21.2,40,18.4,18.5
 2002/11/02, 5:15,21.1,40,18.5,18.6
 2002/11/02, 5:30,21.2,40,18.6,18.6
 2002/11/02, 5:45,21.1,41,18.4,18.7
 2002/11/02, 6:00,21.1,41,18.5,18.7
 2002/11/02, 6:15,21.1,41,18.3,18.7
 2002/11/02, 6:30,21.1,41,18.4,18.8
 2002/11/02, 6:45,21.1,42,18.4,18.8
 2002/11/02, 7:00,21.3,42,18.4,18.9
 2002/11/02, 7:15,21.6,42,18.5,18.9
 2002/11/02, 7:30,22,42,18.6,18.9
 2002/11/02, 7:45,22.3,41,18.5,19
 2002/11/02, 8:00,22.6,41,18.5,19
 2002/11/02, 8:15,22.8,40,18.7,19
 2002/11/02, 8:30,22.9,40,18.8,18
 2002/11/02, 8:45,23,40,18.6,18
 2002/11/02, 9:00,23,37,18.7,17.5
 2002/11/02, 9:15,22.9,34,19.8,17.6
 2002/11/02, 9:30,22.6,26,19.7,17.6
 2002/11/02, 9:45,22.3,32,19.6,17.7
 2002/11/02,10:00,22.2,35,19.3,17.7
 2002/11/02,10:15,22.3,36,19.6,17.2
 2002/11/02,10:30,22.1,37,19.7,17.3
 2002/11/02,10:45,22.1,38,19.7,17.3
 2002/11/02,11:00,22.1,38,19.6,17.4
 2002/11/02,11:15,22,36,19.5,17.5
 2002/11/02,11:30,22.1,35,19.5,17.5
 2002/11/02,11:45,21.9,35,19.6,17.6
 2002/11/02,12:00,21.9,36,19.7,17.6
 2002/11/02,12:15,21.8,37,19.8,17.7
 2002/11/02,12:30,21.8,37,19.7,17.7
 2002/11/02,12:45,21.7,37,19.7,17.8
 2002/11/02,13:00,21.7,37,19.7,17.8
 2002/11/02,13:15,21.7,37,19.6,17.9
 2002/11/02,13:30,21.6,37,19.6,17.9
 2002/11/02,13:45,21.6,37,19.6,18
 2002/11/02,14:00,21.6,37,19.7,18
 2002/11/02,14:15,21.6,38,19.7,18.1
 2002/11/02,14:30,21.6,36,19.7,18.1
 2002/11/02,14:45,20.9,25,19.6,18.2
 2002/11/02,15:00,20.2,25,19.2,18.2
 2002/11/02,15:15,19.8,27,19.2,18.2
 2002/11/02,15:30,18.8,29,19.1,18.3
 2002/11/02,15:45,19.9,32,18.8,18.3
 2002/11/02,16:00,20,31,18.6,18.4
 2002/11/02,16:15,20,31,18.4,18.4
 2002/11/02,16:30,20.3,33,19.3,18.4
 2002/11/02,16:45,20.4,34,19.4,18.5
 2002/11/02,17:00,20.5,35,19.5,18.5
 2002/11/02,17:15,20.6,37,19.3,18.5
 2002/11/02,17:30,20.7,37,19.5,17.7
 2002/11/02,17:45,20.9,37,19.4,17.8
 2002/11/02,18:00,20.8,37,19.3,17.8
 2002/11/02,18:15,20.8,36,19.3,17.9
 2002/11/02,18:30,20.8,36,19.3,17.9
 2002/11/02,18:45,20.8,36,19.1,18
 2002/11/02,19:00,20.8,36,19.2,18
 2002/11/02,19:15,20.8,36,19.2,18.1
 2002/11/02,19:30,20.8,36,19.3,18.1
 2002/11/02,19:45,20.8,36,19.3,18.1
 2002/11/02,20:00,20.8,36,19.2,18.2
 2002/11/02,20:15,20.8,36,19.2,18.2
 2002/11/02,20:30,20.8,36,19.2,18.3
 2002/11/02,20:45,20.8,36,19.3,18.3
 2002/11/02,21:00,20.8,36,19.2,18.4
 2002/11/02,21:15,20.8,36,19.3,18.4
 2002/11/02,21:30,20.7,36,19.3,18.4
 2002/11/02,21:45,20.7,36,19.3,18.5
 2002/11/02,22:00,20.7,36,19.2,18.5
 2002/11/02,22:15,20.7,36,19.2,18.5
 2002/11/02,22:30,20.7,36,19.3,18.6
 2002/11/02,22:45,20.7,36,19.2,18.6
 2002/11/02,23:00,20.7,36,19.3,18.7
 2002/11/02,23:15,20.7,36,19.2,18.7
 2002/11/02,23:30,21,37,19.2,18.7
 2002/11/02,23:45,21.2,37,19.1,18.8
 2002/11/03, 0:00,21.3,37,19.1,18.8
 2002/11/03, 0:15,21.3,37,18.9,18.8
 2002/11/03, 0:30,21.4,36,18.9,18.9
 2002/11/03, 0:45,21.4,36,18.9,18.9
 2002/11/03, 1:00,21.4,34,18.8,18.9
 2002/11/03, 1:15,21.5,36,18.9,19
 2002/11/03, 1:30,21.5,36,19,19
 2002/11/03, 1:45,21.6,37,19,19
 2002/11/03, 2:00,21.5,37,19.1,19.1
 2002/11/03, 2:15,21.5,37,18.9,19.1
 2002/11/03, 2:30,21.5,37,18.9,19.1
 2002/11/03, 2:45,21.4,37,18.9,17.7
 2002/11/03, 3:00,21.4,37,18.3,17.7
 2002/11/03, 3:15,21.3,38,18.1,17.8
 2002/11/03, 3:30,21.3,38,18.1,17.8
 2002/11/03, 3:45,21.3,38,18,17.9
 2002/11/03, 4:00,21.3,38,18,17.9
 2002/11/03, 4:15,21.2,38,18,18
 2002/11/03, 4:30,21.2,39,18.1,18
 2002/11/03, 4:45,21.2,39,18.2,18.1
 2002/11/03, 5:00,21.2,39,18.3,18.1
 2002/11/03, 5:15,21.2,39,18.2,18.2
 2002/11/03, 5:30,21.2,39,18.1,18.2
 2002/11/03, 5:45,21.1,39,18.1,18.2
 2002/11/03, 6:00,21.1,39,18.3,18.3
 2002/11/03, 6:15,21.2,40,18.1,18.3
 2002/11/03, 6:30,21.2,40,18,18.4
 2002/11/03, 6:45,21.2,40,18,17.3
 2002/11/03, 7:00,21.3,40,18.1,17.4
 2002/11/03, 7:15,18.4,29,18.7,17.4
 2002/11/03, 7:30,20.8,35,18.9,17.7
 2002/11/03, 7:45,21,36,19,17.8
 2002/11/03, 8:00,21.4,37,19.1,17.8
 2002/11/03, 8:15,21.9,39,19.5,17.8
 2002/11/03, 8:30,22.2,40,19.7,17.9
 2002/11/03, 8:45,22.3,40,19.8,17.9
 2002/11/03, 9:00,22.4,40,19.9,17.4
 2002/11/03, 9:15,22.3,40,20,17
 2002/11/03, 9:30,22.3,40,20,16.9
 2002/11/03, 9:45,22.1,40,20,16.8
 2002/11/03,10:00,22,40,19.8,16.9
 2002/11/03,10:15,22,40,19.8,17.1
 2002/11/03,10:30,21.9,39,19.8,17.1
 2002/11/03,10:45,21.9,39,19.7,17.2
 2002/11/03,11:00,21.8,39,19.6,17.2
 2002/11/03,11:15,21.7,38,19.7,17.4
 2002/11/03,11:30,21.7,39,19.6,17.4
 2002/11/03,11:45,21.6,38,19.7,17.5
 2002/11/03,12:00,21.6,38,19.7,17.5
 2002/11/03,12:15,21.6,38,19.7,17.6
 2002/11/03,12:30,21.6,39,19.7,17.6
 2002/11/03,12:45,21.6,39,19.6,17.6
 2002/11/03,13:00,21.6,38,19.6,17.6
 2002/11/03,13:15,21.5,38,19.6,17.6
 2002/11/03,13:30,21.5,37,19.5,17.7
 2002/11/03,13:45,21.3,36,19.4,17.7
 2002/11/03,14:00,21.3,37,19.4,17.8
 2002/11/03,14:15,21.3,37,19.4,17.8
 2002/11/03,14:30,21.3,36,19.4,17.9
 2002/11/03,14:45,21.3,37,19.3,17.3
 2002/11/03,15:00,21.4,38,19.5,17.3
 2002/11/03,15:15,21.3,38,19.5,17.4
 2002/11/03,15:30,21.3,40,19.5,17.5
 2002/11/03,15:45,21.3,41,19.5,17.5
 2002/11/03,16:00,21.4,40,19.6,17.1
 2002/11/03,16:15,21.3,43,19.6,17.6
 2002/11/03,16:30,21.3,41,19.7,17.7
 2002/11/03,16:45,21.3,41,19.9,17.7
 2002/11/03,17:00,21.3,40,19.9,17.8
 2002/11/03,17:15,21.3,40,20,17.9
 2002/11/03,17:30,21.3,41,19.7,17.8
 2002/11/03,17:45,21.1,41,19.5,17.8
 2002/11/03,18:00,21,40,19.5,17.9
 2002/11/03,18:15,21,40,19.4,17.9
 2002/11/03,18:30,20.9,41,19.4,17.9
 2002/11/03,18:45,20.9,41,19.4,18
 2002/11/03,19:00,20.9,40,19.4,18
 2002/11/03,19:15,20.8,41,19.4,18.1
 2002/11/03,19:30,20.8,41,19.4,18.1
 2002/11/03,19:45,20.8,41,19.3,18.2
 2002/11/03,20:00,20.7,41,19.3,18.2
 2002/11/03,20:15,20.7,40,19.3,18.2
 2002/11/03,20:30,20.7,40,19.3,18.3
 2002/11/03,20:45,20.7,40,19.3,18.3
 2002/11/03,21:00,20.7,40,19.3,18.4
 2002/11/03,21:15,20.6,40,19.3,18.4
 2002/11/03,21:30,20.6,40,19.3,18.4
 2002/11/03,21:45,20.6,40,19.2,18.5
 2002/11/03,22:00,20.5,40,19.2,18.5
 2002/11/03,22:15,20.5,40,19.1,18.6
 2002/11/03,22:30,20.4,42,19.3,18.6
 2002/11/03,22:45,20.7,48,19.4,18.6
 2002/11/03,23:00,20.8,45,19.3,18.7
 2002/11/03,23:15,20.8,45,19.3,18.7
 2002/11/03,23:30,20.8,44,19.3,18.7
 2002/11/03,23:45,20.8,44,19.3,18.8
 2002/11/04, 0:00,20.7,44,19.3,18.8
 2002/11/04, 0:15,20.8,44,19.3,18.8
 2002/11/04, 0:30,20.8,43,19.3,18.9
 2002/11/04, 0:45,20.8,44,19.2,18.9
 2002/11/04, 1:00,20.7,43,19.3,18.9
 2002/11/04, 1:15,20.7,43,19.2,19
 2002/11/04, 1:30,20.7,42,19,19
 2002/11/04, 1:45,20.7,42,19,19
 2002/11/04, 2:00,20.7,42,18.9,19.1
 2002/11/04, 2:15,20.6,42,18.9,19.1
 2002/11/04, 2:30,20.6,42,18.9,19.1
 2002/11/04, 2:45,20.5,41,18.9,19.2
 2002/11/04, 3:00,20.8,42,18.9,17.9
 2002/11/04, 3:15,20.8,43,18.5,17.9
 2002/11/04, 3:30,20.9,42,18.2,18
 2002/11/04, 3:45,20.9,42,18.3,18
 2002/11/04, 4:00,20.9,42,18.2,18.1
 2002/11/04, 4:15,20.8,41,18.2,18.1
 2002/11/04, 4:30,20.8,40,18.3,18.1
 2002/11/04, 4:45,20.8,41,18.4,18.2
 2002/11/04, 5:00,20.8,41,18.2,18.2
 2002/11/04, 5:15,20.7,41,18.2,18.2
 2002/11/04, 5:30,20.7,40,18,18.3
 2002/11/04, 5:45,20.7,40,18.2,18.3
 2002/11/04, 6:00,20.7,39,18,18.4
 2002/11/04, 6:15,20.7,40,18,18.4
 2002/11/04, 6:30,20.7,41,18.1,18.4
 2002/11/04, 6:45,20.9,41,18,18.5
 2002/11/04, 7:00,21.3,41,18,17.2
 2002/11/04, 7:15,21.7,41,17.9,17.2
 2002/11/04, 7:30,21.9,41,17.6,17.3
 2002/11/04, 7:45,22.3,41,17.5,17.3
 2002/11/04, 8:00,22.5,41,17.5,17.4
 2002/11/04, 8:15,22.6,39,19.1,17.3
 2002/11/04, 8:30,22.6,39,19.1,17.3
 2002/11/04, 8:45,22.6,34,18.5,17.4
 2002/11/04, 9:00,22.6,33,18.4,16.9
 2002/11/04, 9:15,22.4,32,18.3,17
 2002/11/04, 9:30,22.3,32,18.3,17.1
 2002/11/04, 9:45,22.2,33,18.2,17.1
 2002/11/04,10:00,22,33,18.3,16.9
 2002/11/04,10:15,21.9,33,18.1,16.9
 2002/11/04,10:30,21.7,31,18.5,17
 2002/11/04,10:45,21.6,31,18.2,17
 2002/11/04,11:00,21.2,26,18.2,17.1
 2002/11/04,11:15,21.2,22,18.1,17.1
 2002/11/04,11:30,21.1,24,18,17.2
 2002/11/04,11:45,21.1,23,17.9,17.2
 2002/11/04,12:00,21,24,17.9,17.3
 2002/11/04,12:15,21,26,17.8,17.3
 2002/11/04,12:30,21.1,29,17.8,17.3
 2002/11/04,12:45,21.1,28,17.8,17.4
 2002/11/04,13:00,21.1,25,17.8,17.4
 2002/11/04,13:15,21,26,17.7,17.2
 2002/11/04,13:30,20.7,25,17.9,17.3
 2002/11/04,13:45,20.5,25,17.8,17.3
 2002/11/04,14:00,20.5,25,17.9,17.3
 2002/11/04,14:15,20.4,24,17.8,17.4
 2002/11/04,14:30,20.3,25,17.9,17.4
 2002/11/04,14:45,20.3,25,17.8,17.5
 2002/11/04,15:00,20.3,26,17.8,17.5
 2002/11/04,15:15,20.2,25,17.8,17.5
 2002/11/04,15:30,20.3,28,18.3,17
 2002/11/04,15:45,20.2,28,18.6,17.3
 2002/11/04,16:00,19.2,29,18.2,17.4
 2002/11/04,16:15,19.9,29,18.1,17.4
 2002/11/04,16:30,20,29,18.1,17.4
 2002/11/04,16:45,20,29,18,17.5
 2002/11/04,17:00,20,29,18,17.5
 2002/11/04,17:15,20,30,18,17.5
 2002/11/04,17:30,20,31,18.1,17.6
 2002/11/04,17:45,20,31,18.1,17.6
 2002/11/04,18:00,19.9,31,18.1,17.6
 2002/11/04,18:15,20.1,32,18.2,17.7
 2002/11/04,18:30,20.1,33,18.1,17.7
 2002/11/04,18:45,20.1,33,18.1,17.8
 2002/11/04,19:00,20.2,33,18.1,17.8
 2002/11/04,19:15,20.2,34,18.1,17.8
 2002/11/04,19:30,20.2,34,18.3,17.8
 2002/11/04,19:45,20.2,34,18.4,18
 2002/11/04,20:00,20.2,34,18.4,17.5
 2002/11/04,20:15,20.3,34,18.4,17.5
 2002/11/04,20:30,20.3,34,18.5,17.5
 2002/11/04,20:45,20.3,34,18.5,17.6
 2002/11/04,21:00,20.3,36,18.5,17.6
 2002/11/04,21:15,20.3,36,18.5,17.7
 2002/11/04,21:30,20.3,36,18.6,17.7
 2002/11/04,21:45,20.3,36,18.5,17.7
 2002/11/04,22:00,20.4,35,18.5,17.8
 2002/11/04,22:15,20.4,37,18.6,17.8
 2002/11/04,22:30,20.4,37,18.6,17.8
 2002/11/04,22:45,20.4,37,18.7,17.9
 2002/11/04,23:00,20.4,37,18.8,17.9
 2002/11/04,23:15,20.4,37,18.7,17.9
 2002/11/04,23:30,20.4,37,18.6,18
 2002/11/04,23:45,20.4,37,18.6,18
 2002/11/05, 0:00,20.6,37,18.6,18
 2002/11/05, 0:15,20.6,37,18.6,18.1
 2002/11/05, 0:30,20.7,36,18.4,18.1
 2002/11/05, 0:45,20.6,37,18.5,18.1
 2002/11/05, 1:00,20.6,37,18.4,18.2
 2002/11/05, 1:15,20.6,38,18.5,18.2
 2002/11/05, 1:30,20.6,38,18,17.3
 2002/11/05, 1:45,20.5,37,17.5,17.3
 2002/11/05, 2:00,20.5,36,17.3,17.4
 2002/11/05, 2:15,20.5,36,17.2,17.4
 2002/11/05, 2:30,20.4,35,17.2,17.5
 2002/11/05, 2:45,20.4,36,17.4,17.5
 2002/11/05, 3:00,20.4,35,17.4,17.5
 2002/11/05, 3:15,20.3,35,16.9,17.6
 2002/11/05, 3:30,20.3,35,16.7,17.6
 2002/11/05, 3:45,20.3,34,16.8,17.7
 2002/11/05, 4:00,20.2,34,16.7,17.7
 2002/11/05, 4:15,20.3,34,16.6,17.7
 2002/11/05, 4:30,20.1,34,16.8,17.8
 2002/11/05, 4:45,20.2,34,16.7,17.8
 2002/11/05, 5:00,20.2,34,16.5,17.8
 2002/11/05, 5:15,20.2,34,16.5,17.9
 2002/11/05, 5:30,20.1,34,16.2,17.9
 2002/11/05, 5:45,20.1,34,16.4,17.9
 2002/11/05, 6:00,20,34,16.3,18
 2002/11/05, 6:15,20.1,34,16.3,18
 2002/11/05, 6:30,20.1,36,17.2,18
 2002/11/05, 6:45,20,39,17.6,18.1
 2002/11/05, 7:00,20.2,39,18,16.5
 2002/11/05, 7:15,20.7,39,17.9,16.3
 2002/11/05, 7:30,21.1,37,18,16.1
 2002/11/05, 7:45,21.5,37,18.4,16.2
 2002/11/05, 8:00,21.7,38,18.3,16.2
 2002/11/05, 8:15,21.6,37,18.1,16.3
 2002/11/05, 8:30,21.3,38,18.2,16.3
 2002/11/05, 8:45,21.1,38,18.2,16.4
 2002/11/05, 9:00,21.2,38,18.3,16.5
 2002/11/05, 9:15,21,38,18.2,16.5
 2002/11/05, 9:30,20.9,38,18.2,16.6
 2002/11/05, 9:45,20.8,37,18.1,16.6
 2002/11/05,10:00,20.7,37,18.1,16.7
 2002/11/05,10:15,20.5,37,18,16.7
 2002/11/05,10:30,20.4,37,18,16.8
 2002/11/05,10:45,20.4,36,18,16.8
 2002/11/05,11:00,20.4,36,18.1,16.9
 2002/11/05,11:15,20.3,36,17.9,16.9
 2002/11/05,11:30,20.2,36,18,17
 2002/11/05,11:45,20.2,36,18,17
 2002/11/05,12:00,20.1,35,18,17.1
 2002/11/05,12:15,20.1,35,18,17.1
 2002/11/05,12:30,20.1,35,18.1,17.1
 2002/11/05,12:45,20.1,35,18,17.2
 2002/11/05,13:00,20,34,18,17.2
 2002/11/05,13:15,20,34,18,17.3
 2002/11/05,13:30,20,34,18.2,17.3
 2002/11/05,13:45,20.1,35,18,17.4
 2002/11/05,14:00,20,34,18,17.4
 2002/11/05,14:15,19.9,34,18.1,17.4
 2002/11/05,14:30,19.9,34,18.2,17.5
 2002/11/05,14:45,19.9,34,18.2,17.5
 2002/11/05,15:00,19.9,34,18.1,17.6
 2002/11/05,15:15,19.9,34,18.1,17.6
 2002/11/05,15:30,19.9,34,18.4,17.6
 2002/11/05,15:45,19.9,34,18.3,17.7
 2002/11/05,16:00,19.8,33,18.2,17.7
 2002/11/05,16:15,19.8,33,18.2,17.8
 2002/11/05,16:30,19.8,34,18,17.8
 2002/11/05,16:45,19.7,34,18,17.8
 2002/11/05,17:00,19.7,34,18,17.9
 2002/11/05,17:15,19.7,34,18,17.9
 2002/11/05,17:30,19.6,34,18,17.9
 2002/11/05,17:45,19.6,34,18,18
 2002/11/05,18:00,19.6,34,18,18
 2002/11/05,18:15,19.6,34,17.9,18
 2002/11/05,18:30,19.5,34,17.9,18.1
 2002/11/05,18:45,19.5,34,17.9,18.1
 2002/11/05,19:00,19.5,34,18,18.1
 2002/11/05,19:15,19.5,35,18,18.1
 2002/11/05,19:30,19.5,35,17.8,18.2
 2002/11/05,19:45,19.5,35,17.8,18.2
 2002/11/05,20:00,19.6,34,17.9,18.2
 2002/11/05,20:15,19.4,35,17.8,18.3
 2002/11/05,20:30,19.4,35,17.8,18.3
 2002/11/05,20:45,19.4,36,17.9,18.3
 2002/11/05,21:00,19.6,36,17.8,18.3
 2002/11/05,21:15,19.6,36,18,16.8
 2002/11/05,21:30,19.7,37,17.9,15.8
 2002/11/05,21:45,19.7,37,17.8,15.8
 2002/11/05,22:00,19.9,37,17.6,15.9
 2002/11/05,22:15,19.8,38,17.8,15.9
 2002/11/05,22:30,19.8,38,17.6,15.9
 2002/11/05,22:45,20,37,16.9,15.9
 2002/11/05,23:00,20.1,37,16.8,16
 2002/11/05,23:15,20.2,37,16.8,16
 2002/11/05,23:30,20.1,37,16.7,16.1
 2002/11/05,23:45,20.2,37,17,16.1
 2002/11/06, 0:00,20.1,38,16.9,16.2
 2002/11/06, 0:15,20.1,37,16.7,16.2
 2002/11/06, 0:30,20.1,37,16.7,16.3
 2002/11/06, 0:45,20,37,16.6,16.3
 2002/11/06, 1:00,20.1,37,16.6,16.4
 2002/11/06, 1:15,20,37,16.6,16.5
 2002/11/06, 1:30,20,37,16.6,16.5
 2002/11/06, 1:45,19.9,37,16.5,16.6
 2002/11/06, 2:00,19.9,38,16.6,16.6
 2002/11/06, 2:15,20,38,16.6,16.7
 2002/11/06, 2:30,20,37,16.5,16.8
 2002/11/06, 2:45,19.9,38,16.4,16.8
 2002/11/06, 3:00,20,38,16.6,16.9
 2002/11/06, 3:15,19.8,38,16.7,16.9
 2002/11/06, 3:30,19.9,38,16.6,17
 2002/11/06, 3:45,19.8,38,16.4,17
 2002/11/06, 4:00,19.8,39,16.4,17.1
 2002/11/06, 4:15,19.8,39,16.5,17.1
 2002/11/06, 4:30,19.8,38,16.4,17.2
 2002/11/06, 4:45,19.9,39,16.6,17.2
 2002/11/06, 5:00,19.8,39,16.5,17.3
 2002/11/06, 5:15,19.7,39,16.5,17.3
 2002/11/06, 5:30,19.7,38,16.4,17.4
 2002/11/06, 5:45,19.7,38,16.2,17.5
 2002/11/06, 6:00,19.8,39,16.2,17.5
 2002/11/06, 6:15,19.7,38,16.4,17.5
 2002/11/06, 6:30,19.7,40,17.5,15.6
 2002/11/06, 6:45,19.9,43,17.6,16.8
 2002/11/06, 7:00,18,31,17.8,16.5
 2002/11/06, 7:15,19.7,36,17.6,15.9
 2002/11/06, 7:30,20.5,36,17.8,15.8
 2002/11/06, 7:45,21,36,18,15.8
 2002/11/06, 8:00,21,36,17.8,15.9
 2002/11/06, 8:15,21,35,17.7,16
 2002/11/06, 8:30,21,34,17.9,16
 2002/11/06, 8:45,21,34,17.9,16.1
 2002/11/06, 9:00,20.9,34,17.8,16.1
 2002/11/06, 9:15,20.8,34,17.9,16.2
 2002/11/06, 9:30,20.6,35,17.9,16.2
 2002/11/06, 9:45,20.5,35,17.7,16.3
 2002/11/06,10:00,20.4,35,17.9,16.3
 2002/11/06,10:15,20.2,35,17.8,16.4
 2002/11/06,10:30,20.2,35,17.9,16.4
 2002/11/06,10:45,20.1,35,17.8,16.5
 2002/11/06,11:00,20.1,35,17.7,16.5
 2002/11/06,11:15,20,35,17.8,16.6
 2002/11/06,11:30,20,35,17.7,16.6
 2002/11/06,11:45,19.9,35,17.8,16.6
 2002/11/06,12:00,19.8,35,17.8,16.7
 2002/11/06,12:15,19.8,35,17.7,16.7
 2002/11/06,12:30,19.8,35,17.6,16.8
 2002/11/06,12:45,19.7,35,17.6,16.8
 2002/11/06,13:00,19.6,35,17.6,16.9
 2002/11/06,13:15,19.6,35,17.7,16.9
 2002/11/06,13:30,19.7,35,17.7,16.9
 2002/11/06,13:45,19.7,34,17.8,17
 2002/11/06,14:00,19.6,34,17.8,17
 2002/11/06,14:15,19.6,34,17.8,17.1
 2002/11/06,14:30,19.6,34,17.9,17.1
 2002/11/06,14:45,19.5,34,17.8,17.1
 2002/11/06,15:00,19.7,34,17.9,17.2
 2002/11/06,15:15,19.5,34,17.8,17.2
 2002/11/06,15:30,19.6,34,18.2,17.2
 2002/11/06,15:45,19.5,34,18.3,17.3
 2002/11/06,16:00,19.6,34,18.1,17.3
 2002/11/06,16:15,19.5,34,18,17.3
 2002/11/06,16:30,19.5,34,17.9,17.4
 2002/11/06,16:45,19.5,33,17.9,17.4
 2002/11/06,17:00,19.4,34,17.8,17.4
 2002/11/06,17:15,19.4,34,17.8,17.5
 2002/11/06,17:30,19.4,34,17.8,17.5
 2002/11/06,17:45,19.3,34,17.8,17.5
 2002/11/06,18:00,19.3,34,17.9,17.6
 2002/11/06,18:15,19.2,34,17.8,17.6
 2002/11/06,18:30,19.2,34,17.8,17.6
 2002/11/06,18:45,19.3,34,17.7,17.7
 2002/11/06,19:00,19.3,34,17.8,17.7
 2002/11/06,19:15,19.2,34,17.8,17.7
 2002/11/06,19:30,19.2,35,17.8,17.7
 2002/11/06,19:45,19.1,35,17.7,17.8
 2002/11/06,20:00,19.1,35,17.7,17.8
 2002/11/06,20:15,19.1,35,17.8,17.8
 2002/11/06,20:30,19.1,35,17.7,17.8
 2002/11/06,20:45,19.1,35,17.8,17.8
 2002/11/06,21:00,19.1,35,17.7,17.9
 2002/11/06,21:15,19.1,35,17.6,17.9
 2002/11/06,21:30,19.2,35,17.6,17.9
 2002/11/06,21:45,19,35,17.6,17.9
 2002/11/06,22:00,19,35,17.6,18
 2002/11/06,22:15,19,35,17.6,18
 2002/11/06,22:30,19,35,17.7,18
 2002/11/06,22:45,19.1,35,17.6,18
 2002/11/06,23:00,19.2,36,17.7,18.1
 2002/11/06,23:15,19.3,36,18.1,18.1
 2002/11/06,23:30,19.3,38,18.2,18.1
 2002/11/06,23:45,19.3,38,18.1,17.1
 2002/11/07, 0:00,19.4,37,18.1,17.1
 2002/11/07, 0:15,19.4,37,18,17.2
 2002/11/07, 0:30,19.3,38,18.1,17.2
 2002/11/07, 0:45,19.4,38,18,16
 2002/11/07, 1:00,19.5,40,18.1,16
 2002/11/07, 1:15,19.6,39,18,16.1
 2002/11/07, 1:30,19.6,39,17.7,15.6
 2002/11/07, 1:45,19.7,39,17.4,15.7
 2002/11/07, 2:00,19.6,39,17.4,15.7
 2002/11/07, 2:15,19.5,39,17.3,15.8
 2002/11/07, 2:30,19.5,39,17.2,15.8
 2002/11/07, 2:45,19.5,39,17.1,15.9
 2002/11/07, 3:00,19.6,39,17,15.9
 2002/11/07, 3:15,19.6,39,17,16
 2002/11/07, 3:30,19.6,39,17.1,16
 2002/11/07, 3:45,19.5,39,17,16.1
 2002/11/07, 4:00,19.6,39,16.9,16.1
 2002/11/07, 4:15,19.6,39,17.1,16.2
 2002/11/07, 4:30,19.6,39,17.1,16.2
 2002/11/07, 4:45,19.5,40,16.9,16.3
 2002/11/07, 5:00,19.5,40,16.9,16.3
 2002/11/07, 5:15,19.5,40,16.8,16.4
 2002/11/07, 5:30,19.4,40,17,16.5
 2002/11/07, 5:45,19.5,40,17.1,16.5
 2002/11/07, 6:00,19.3,40,17.1,16.6
 2002/11/07, 6:15,19.4,40,17.9,16.6
 2002/11/07, 6:30,19.2,40,17.9,16.6
 2002/11/07, 6:45,19.3,40,17.9,16.7
 2002/11/07, 7:00,16.2,40,17.7,15.5
 2002/11/07, 7:15,19,38,17.6,15.5
 2002/11/07, 7:30,19.6,37,17.7,15.4
 2002/11/07, 7:45,20,37,18,15.5
 2002/11/07, 8:00,20.2,39,17.9,15.6
 2002/11/07, 8:15,20.3,38,17.8,15.6
 2002/11/07, 8:30,20.3,38,17.7,15.7
 2002/11/07, 8:45,20.3,38,18,15.7
 2002/11/07, 9:00,20.3,38,18.1,15.8
 2002/11/07, 9:15,20.2,38,18.3,15.8
 2002/11/07, 9:30,20.1,39,18.4,15.9
 2002/11/07, 9:45,20,39,18.4,15.9
 2002/11/07,10:00,19.8,39,18.4,16
 2002/11/07,10:15,19.8,39,18.5,16
 2002/11/07,10:30,19.9,39,18.4,16.1
 2002/11/07,10:45,19.8,39,18.4,16.2
 2002/11/07,11:00,19.8,39,18.5,16.2
 2002/11/07,11:15,19.8,39,18.4,16.3
 2002/11/07,11:30,19.7,39,18.5,16.3
 2002/11/07,11:45,19.7,39,18.4,16.4
 2002/11/07,12:00,19.6,39,18.4,16.4
 2002/11/07,12:15,19.7,40,18.5,16.5
 2002/11/07,12:30,19.6,40,18.5,16.5
 2002/11/07,12:45,19.6,40,18.5,16.6
 2002/11/07,13:00,19.6,40,18.5,16.6
 2002/11/07,13:15,19.6,39,18.6,16.7
 2002/11/07,13:30,19.7,38,18.6,16.7
 2002/11/07,13:45,19.7,38,18.6,16.8
 2002/11/07,14:00,19.8,38,18.6,16.8
 2002/11/07,14:15,19.7,37,18.5,16.9
 2002/11/07,14:30,19.7,37,18.6,16.9
 2002/11/07,14:45,19.7,37,18.5,16.9
 2002/11/07,15:00,19.6,37,18.5,17
 2002/11/07,15:15,19.6,37,18.5,17.1
 2002/11/07,15:30,19.7,38,18.5,17.1
 2002/11/07,15:45,19.6,38,18.6,17.1
 2002/11/07,16:00,19.7,38,18.6,17.2
 2002/11/07,16:15,19.7,38,18.5,17.2
 2002/11/07,16:30,19.6,38,18.6,17.3
 2002/11/07,16:45,19.7,38,18.5,17.3
 2002/11/07,17:00,19.6,39,18.6,17.3
 2002/11/07,17:15,19.5,39,18.5,17.4
 2002/11/07,17:30,19.5,39,18.5,17.4
 2002/11/07,17:45,19.5,39,18.6,17.5
 2002/11/07,18:00,19.5,39,18.5,17.5
 2002/11/07,18:15,19.5,39,18.6,17.5
 2002/11/07,18:30,19.5,39,18.5,17.6
 2002/11/07,18:45,19.5,39,18.5,17.6
 2002/11/07,19:00,19.5,39,18.6,17.7
 2002/11/07,19:15,19.5,39,18.5,17.7
 2002/11/07,19:30,19.5,39,18.5,17.7
 2002/11/07,19:45,19.5,39,18.5,17.8
 2002/11/07,20:00,19.6,39,18.6,17.8